TimeCST,TemperatureF,Dew PointF,Humidity,Sea Level PressureIn,VisibilityMPH,Wind Direction,Wind SpeedMPH,Gust SpeedMPH,PrecipitationIn,Events,Conditions,WindDirDegrees,DateUTC
12:15 AM,24.8,21.2,86,29.79,2.5,SSE,4.6,-,N/A,,Overcast,160,2012-12-19 06:15:00
12:31 AM,24.8,21.2,86,29.79,3.0,South,4.6,-,N/A,,Overcast,180,2012-12-19 06:31:00
12:53 AM,25.0,21.9,88,29.86,3.0,SSE,4.6,-,N/A,,Overcast,160,2012-12-19 06:53:00
1:49 AM,26.6,23.0,86,29.80,3.0,SSE,4.6,-,N/A,,Overcast,160,2012-12-19 07:49:00
1:53 AM,26.1,23.0,88,29.87,3.0,SSE,4.6,-,N/A,,Overcast,160,2012-12-19 07:53:00
2:53 AM,28.0,24.1,85,29.89,4.0,SW,5.8,-,N/A,,Overcast,220,2012-12-19 08:53:00
3:03 AM,28.4,24.8,86,29.82,4.0,SW,5.8,-,N/A,,Overcast,220,2012-12-19 09:03:00
3:40 AM,26.6,21.2,80,29.81,6.0,SW,4.6,-,N/A,,Scattered Clouds,220,2012-12-19 09:40:00
3:53 AM,24.1,21.0,88,29.89,6.0,SW,3.5,-,N/A,,Clear,230,2012-12-19 09:53:00
4:41 AM,21.2,19.4,93,29.82,3.0,SSW,8.1,-,N/A,,Scattered Clouds,210,2012-12-19 10:41:00
4:50 AM,24.8,21.2,86,29.83,5.0,SW,5.8,-,N/A,,Mostly Cloudy,220,2012-12-19 10:50:00
4:53 AM,24.1,21.9,91,29.90,5.0,SW,6.9,-,N/A,,Mostly Cloudy,220,2012-12-19 10:53:00
5:53 AM,25.0,23.0,92,29.93,7.0,SSW,8.1,-,N/A,,Overcast,210,2012-12-19 11:53:00
6:26 AM,23.0,21.2,93,29.87,5.0,SSW,3.5,-,N/A,,Scattered Clouds,200,2012-12-19 12:26:00
6:53 AM,19.9,18.0,92,29.96,5.0,South,5.8,-,N/A,,Clear,190,2012-12-19 12:53:00
7:53 AM,19.0,17.1,92,29.97,3.0,South,4.6,-,N/A,,Clear,190,2012-12-19 13:53:00
8:53 AM,18.0,16.0,92,29.98,4.0,SSE,4.6,-,N/A,,Clear,150,2012-12-19 14:53:00
9:53 AM,19.9,17.1,89,29.99,5.0,SSE,5.8,-,N/A,,Clear,150,2012-12-19 15:53:00
10:53 AM,21.9,19.0,89,30.01,8.0,SSW,4.6,-,N/A,,Clear,200,2012-12-19 16:53:00
11:53 AM,25.0,19.9,81,30.02,10.0,SSW,8.1,-,N/A,,Clear,200,2012-12-19 17:53:00
12:53 PM,26.1,19.9,78,30.01,9.0,South,5.8,-,N/A,,Clear,180,2012-12-19 18:53:00
1:53 PM,25.0,19.0,78,30.02,10.0,SSW,5.8,-,N/A,,Clear,200,2012-12-19 19:53:00
2:53 PM,27.0,19.9,75,30.02,10.0,SSW,4.6,-,N/A,,Mostly Cloudy,200,2012-12-19 20:53:00
3:53 PM,25.0,19.0,78,30.03,10.0,South,5.8,-,N/A,,Clear,190,2012-12-19 21:53:00
4:53 PM,24.1,19.0,81,30.04,10.0,Calm,Calm,-,N/A,,Clear,0,2012-12-19 22:53:00
5:53 PM,21.9,18.0,85,30.04,10.0,Calm,Calm,-,N/A,,Clear,0,2012-12-19 23:53:00
6:53 PM,21.9,15.1,75,30.06,10.0,NW,5.8,-,N/A,,Clear,310,2012-12-20 00:53:00
7:53 PM,24.1,16.0,71,30.09,10.0,West,4.6,-,N/A,,Overcast,260,2012-12-20 01:53:00
8:53 PM,21.9,15.1,75,30.10,10.0,WNW,8.1,-,N/A,,Overcast,300,2012-12-20 02:53:00
9:53 PM,21.0,14.0,74,30.07,10.0,NNW,5.8,-,N/A,,Overcast,330,2012-12-20 03:53:00
10:53 PM,19.9,14.0,78,30.05,10.0,NNW,6.9,-,N/A,,Partly Cloudy,330,2012-12-20 04:53:00
11:53 PM,19.9,14.0,78,30.07,10.0,NNW,6.9,-,N/A,,Overcast,340,2012-12-20 05:53:00